BEVO 2

Last updated on June 14, 2017, 12:15 a.m. UTC

1 41314U 98067HQ  17164.58972946  .11750698  12645-4  18149-3 0  9997
2 41314  51.6052 348.7173 0009415 280.9513  79.0457 16.47784496 78591

Satellite is not in orbit.